This is the latest recevied weather packets stored in our database for station/object EA3KZ-1. If no packets are shown the sender has not sent any weather packets the latest 10 day(s).
| Time | Temp. | Humidity | Pressure | Rain* | Wind** | Luminosity | Snow |
|---|---|---|---|---|---|---|---|
| 1777813865 | 17.22° C | 72% | 1011.5 hPa | 0 mm | - | - | - |
| 1777813262 | 17.22° C | 73% | 1011.6 hPa | 0 mm | - | - | - |
| 1777812659 | 17.22° C | 75% | 1011.5 hPa | 0 mm | - | - | - |
| 1777812057 | 17.22° C | 74% | 1011.6 hPa | 0 mm | - | - | - |
| 1777811454 | 17.22° C | 74% | 1011.6 hPa | 0 mm | - | - | - |
| 1777810852 | 16.67° C | 75% | 1011.5 hPa | 0 mm | - | - | - |
| 1777810249 | 16.67° C | 75% | 1011.8 hPa | 0 mm | - | - | - |
| 1777809647 | 16.67° C | 78% | 1011.7 hPa | 0 mm | - | - | - |
| 1777809044 | 16.67° C | 75% | 1011.7 hPa | 0 mm | - | - | - |
| 1777808441 | 16.67° C | 75% | 1011.9 hPa | 0 mm | - | - | - |
| 1777807838 | 16.67° C | 76% | 1012 hPa | 0 mm | - | - | - |
| 1777807236 | 16.67° C | 77% | 1012 hPa | 0 mm | - | - | - |
| 1777806633 | 16.67° C | 76% | 1012.4 hPa | 0 mm | - | - | - |
| 1777806031 | 16.11° C | 77% | 1012 hPa | 0 mm | - | - | - |
| 1777805428 | 16.67° C | 75% | 1012.4 hPa | 0 mm | - | - | - |
| 1777804825 | 16.67° C | 76% | 1012.6 hPa | 0 mm | - | - | - |
| 1777804223 | 16.67° C | 74% | 1012.6 hPa | 0 mm | - | - | - |
| 1777803620 | 16.67° C | 75% | 1012.7 hPa | 0 mm | - | - | - |
| 1777803017 | 16.67° C | 74% | 1012.7 hPa | 0 mm | - | - | - |
| 1777802415 | 16.67° C | 73% | 1012.6 hPa | 0 mm | - | - | - |
| 1777801873 | 16.67° C | 74% | 1012.5 hPa | 0 mm | - | - | - |
| 1777801270 | 16.67° C | 76% | 1012.5 hPa | 0 mm | - | - | - |
| 1777800667 | 16.11° C | 76% | 1012.5 hPa | 0 mm | - | - | - |
| 1777800065 | 16.11° C | 77% | 1012.4 hPa | 0 mm | - | - | - |
| 1777799462 | 16.11° C | 77% | 1012.6 hPa | 0 mm | - | - | - |
* Rain latest hour (hover to see other rain measurements)
** Current wind speed in m/s (hover to see current wind gust speed)